Temperature
5 4 4 4 5 5 6 6 6 7 7 7 7 8 9 9 10 10 10 11 12 13 14 14 14 14 14 14 14 14 14 14 15 15 14 14 15 15 15 15 15 15 15 15
4 4 5 5 6 6 6 5 6 7 7 8 7 8 8 9 9 10 10 11 12 13 14 14 14 14 14 14 14 14 14 14 15 15 15 15 15 15 15 15 14 14 14 14
4 5 6 6 5 6 5 5 6 6 7 7 7 7 8 8 9 10 11 12 12 13 14 14 14 14 14 14 14 15 14 14 14 15 15 14 14 14 14 14 14 14 14 14
4 5 5 6 5 6 5 6 6 6 6 6 7 7 7 8 8 9 10 11 12 13 14 14 14 14 14 14 14 14 14 14 14 14 14 14 14 14 14 15 14 14 14 14
4 5 5 5 6 6 6 6 6 6 6 6 6 6 7 7 8 8 9 11 12 13 13 14 14 14 14 14 14 15 14 14 14 14 14 14 14 14 14 14 14 14 14 14
4 5 5 5 6 6 6 6 6 5 5 5 6 6 6 7 8 8 9 10 11 12 13 13 14 14 14 14 14 14 14 14 14 14 14 14 14 14 14 14 14 14 14 14
4 5 5 6 6 6 5 5 4 5 4 5 6 6 7 8 8 8 9 10 11 12 12 13 13 14 14 14 15 15 15 15 14 14 14 14 14 14 14 14 14 14 14 13
4 4 5 5 6 5 5 5 5 5 5 5 6 6 7 8 8 8 9 10 10 11 12 12 13 13 14 14 14 14 15 15 14 14 14 14 14 14 14 14 13 14 13 13
3 4 5 5 6 6 5 4 5 4 4 5 6 6 6 8 7 7 8 9 10 10 11 12 12 13 13 14 14 14 14 14 14 14 14 14 14 14 14 13 13 13 13 13
4 4 4 5 5 5 5 5 4 4 5 6 6 6 6 7 7 7 6 7 9 10 11 11 12 12 13 13 14 14 14 14 14 14 14 14 14 13 13 13 13 13 13 13
4 3 4 4 4 5 5 4 4 4 4 5 5 6 7 6 6 6 6 7 8 9 10 11 11 12 12 13 13 13 14 13 13 13 13 13 13 13 13 13 13 13 12 12
3 3 3 4 4 5 5 5 4 4 4 4 4 5 7 5 5 6 6 7 8 9 9 10 11 11 11 12 12 12 13 13 13 13 13 13 13 13 12 12 12 12 12 12
4 3 2 3 4 4 4 4 4 4 4 4 4 5 6 5 6 6 6 6 7 8 9 9 10 10 10 11 11 11 12 12 12 12 12 12 12 12 12 12 11 11 11 11
4 3 2 3 3 3 4 4 4 4 3 4 4 5 6 5 5 5 6 6 7 8 8 9 9 9 10 10 10 10 11 11 11 11 11 11 11 11 11 11 11 11 10 10
3 2 3 3 3 3 4 4 4 4 4 4 4 5 5 5 5 5 6 6 6 7 7 8 8 8 9 9 9 10 10 10 10 10 10 11 10 10 10 10 10 10 10 9
2 2 2 3 3 3 4 4 4 4 4 4 4 4 5 5 5 5 5 5 5 6 6 7 7 8 8 9 9 9 9 9 9 9 10 10 9 9 9 9 9 9 9 9
1 1 2 2 2 3 3 3 4 4 4 4 4 4 4 4 4 4 4 5 5 5 6 6 7 7 8 8 8 8 8 8 8 9 9 8 8 8 8 8 8 8 8 8
1 1 1 2 2 3 4 4 4 4 3 3 3 3 3 3 4 4 4 4 4 5 5 6 6 7 7 7 8 8 8 8 8 8 8 8 7 7 7 7 7 7 7 7
1 1 1 1 2 2 3 3 3 3 3 3 2 3 3 3 4 4 4 4 4 4 5 5 6 6 6 7 7 7 7 7 7 7 7 7 7 7 7 7 7 6 6 6
1 1 1 1 2 2 3 3 3 3 3 2 2 2 2 3 3 3 3 3 4 4 4 5 5 6 6 6 7 7 7 7 7 7 7 7 6 6 6 6 6 6 6 5
1 1 1 1 1 2 2 2 3 3 3 2 2 2 1 2 2 2 2 3 3 4 4 4 5 5 5 6 6 6 6 6 6 6 6 6 6 6 6 5 5 5 5 5
0 0 1 1 1 2 2 2 2 2 2 2 1 1 1 1 2 2 2 3 3 3 3 4 4 4 5 5 5 5 5 5 5 5 5 5 5 5 5 5 5 4 4 4
-1 -0 -0 1 2 2 2 2 2 2 1 1 1 1 1 1 1 1 2 2 2 3 3 3 3 4 4 4 4 5 5 5 5 5 5 5 5 4 4 4 4 4 4 4
-1 -1 -1 -0 0 1 2 2 2 1 1 1 1 1 1 0 1 1 1 2 2 2 2 2 3 3 3 3 4 4 4 4 4 4 4 4 4 4 4 4 3 3 3 3
-1 -1 -1 -0 -0 1 1 1 1 1 1 0 0 0 0 0 0 0 1 1 1 2 2 2 2 2 3 3 3 3 3 3 3 3 3 3 3 3 3 3 3 3 3 2
-2 -1 -1 -0 1 0 1 1 1 0 0 -0 -0 -0 -0 -0 -0 0 0 1 1 1 1 1 2 2 2 2 2 2 2 3 3 3 3 3 3 3 3 3 3 2 2 2
Wind_Speed
3 3 1 2 3 3 1 1 2 3 3 2 4 7 7 5 3 5 5 5 5 6 4 4 4 4 6 8 11 13 13 12 11 9 9 9 9 7 7 8 11 13 14 14
4 2 4 2 2 2 2 1 1 2 2 2 4 8 7 6 6 7 7 7 7 5 4 3 3 3 5 9 11 12 13 12 12 11 9 6 6 5 6 5 9 12 12 13
1 3 3 1 1 2 1 1 2 2 1 0 1 5 6 5 5 6 7 7 6 7 6 5 4 5 5 7 9 10 11 12 13 11 7 5 4 3 4 6 6 8 12 12
1 3 2 1 0 1 1 2 3 2 1 1 1 3 6 4 5 6 7 7 8 8 6 6 6 5 6 7 7 8 9 10 11 11 10 11 9 8 8 8 7 7 10 10
2 2 1 0 2 1 2 1 0 1 1 1 1 2 6 2 4 7 8 8 9 8 7 7 6 6 6 6 6 7 8 9 10 11 12 12 9 8 6 6 8 8 7 8
2 2 1 2 2 0 0 2 3 3 2 1 3 3 5 3 6 6 6 7 7 7 7 7 5 4 4 4 5 5 7 8 9 10 11 12 12 9 8 8 8 7 5 5
4 4 2 1 2 3 4 4 3 3 1 3 2 2 6 6 5 6 7 7 6 5 5 5 5 4 5 6 6 6 7 7 8 10 11 11 12 12 11 10 9 8 6 5
3 4 3 1 1 1 1 3 3 2 2 3 1 4 6 5 6 5 5 5 4 4 4 4 5 5 5 6 6 7 8 8 7 9 9 9 9 8 8 8 8 8 7 7
1 3 3 2 1 2 1 1 2 2 0 1 3 5 7 5 7 7 6 4 3 4 4 4 3 2 3 4 5 6 7 6 6 6 6 6 7 7 7 7 6 6 5 5
2 2 4 3 2 2 1 2 2 2 1 1 3 3 4 8 9 9 8 6 6 4 3 2 2 1 1 1 2 2 4 4 4 5 6 5 6 7 7 7 7 6 6 6
1 0 4 3 0 1 1 1 1 1 1 2 2 4 2 5 7 8 8 7 6 5 4 3 3 2 1 2 2 1 1 2 3 4 5 6 5 6 7 7 7 7 7 7
0 1 2 4 3 2 2 2 2 2 2 2 2 5 4 5 6 5 7 7 6 5 4 3 3 3 3 3 2 2 1 2 2 4 5 5 5 6 7 7 7 7 8 7
2 2 2 5 4 3 1 1 1 1 1 2 2 5 5 7 8 8 8 8 7 6 5 5 4 4 3 2 2 2 1 1 2 4 5 6 5 6 6 7 7 8 8 8
2 2 3 4 4 2 3 3 1 1 1 2 4 5 8 9 10 10 9 8 7 6 5 5 5 4 3 3 2 1 1 1 2 4 5 5 5 6 7 7 7 7 8 8
3 1 2 4 5 3 3 5 3 3 3 4 4 4 7 9 8 8 8 8 7 7 6 5 4 4 4 3 2 1 0 1 2 4 4 5 5 6 7 7 7 7 8 7
3 1 1 3 3 2 3 4 3 3 3 4 4 5 5 6 6 7 9 8 8 8 7 6 5 5 4 4 3 2 1 1 2 4 4 5 6 7 7 7 8 8 8 7
1 2 1 3 5 3 3 2 2 1 2 2 3 5 7 8 8 8 7 8 8 8 8 8 7 6 5 5 3 3 2 2 3 4 5 5 6 7 7 7 8 8 7 7
3 2 1 1 4 2 3 1 1 1 1 2 3 6 7 8 7 5 5 7 9 9 9 8 8 7 6 4 3 2 2 3 4 4 5 5 6 7 7 7 7 6 6 6
3 3 2 1 1 5 3 1 1 1 2 2 4 7 9 9 5 3 5 7 7 7 7 7 6 6 5 4 3 1 2 3 4 4 5 6 7 8 8 8 7 5 5 5
2 2 2 2 1 4 3 2 2 1 3 2 4 7 9 8 5 5 8 9 9 8 7 6 6 5 5 5 2 0 1 2 4 4 5 5 6 7 8 7 6 5 5 5
2 1 2 3 4 6 4 4 1 2 4 4 4 6 7 5 5 8 10 8 7 7 7 7 6 6 6 5 2 1 1 3 3 2 4 5 6 6 7 6 5 6 6 6
6 5 5 4 4 6 1 2 2 3 3 3 5 5 6 8 9 9 9 9 9 8 7 6 6 6 6 5 3 2 2 2 1 3 4 5 5 5 6 7 6 6 7 6
6 7 5 6 6 2 2 2 2 1 2 4 5 6 7 8 9 9 9 9 8 7 6 5 5 5 5 5 3 2 3 2 1 3 3 4 5 5 6 7 7 6 6 5
4 3 3 4 5 4 3 2 1 2 2 4 5 6 7 8 9 9 8 8 7 7 6 5 4 5 5 5 4 3 3 1 1 2 3 4 4 4 4 4 5 5 6 6
6 6 4 5 4 3 3 3 2 2 3 4 5 6 6 7 9 8 8 7 6 6 5 4 4 4 5 5 5 4 3 2 1 2 2 3 3 4 4 4 4 5 5 6
6 7 7 7 5 4 4 3 2 2 4 5 6 7 7 7 8 8 7 6 6 5 4 4 4 4 4 5 5 4 3 2 1 1 2 2 2 3 3 3 2 4 4 7
Wind_Direction
25 58 308 243 208 202 171 134 196 237 241 232 251 269 279 284 273 266 271 268 263 253 237 224 206 192 196 195 193 192 190 191 187 184 185 188 193 188 186 191 195 196 197 195
39 349 286 250 203 152 136 176 250 278 227 219 260 273 272 255 243 239 244 249 253 256 259 237 215 209 202 197 194 194 193 193 194 193 189 184 179 183 184 185 194 196 195 194
125 287 317 60 99 98 42 200 232 260 287 1 306 289 266 265 248 246 244 244 244 238 243 240 217 212 213 209 204 199 195 197 198 193 179 166 153 145 174 192 197 198 197 196
326 312 356 24 329 125 292 252 219 258 141 308 163 281 280 261 267 252 250 249 247 240 234 236 220 212 208 212 209 206 201 201 198 189 184 186 189 196 199 195 193 191 196 196
317 335 37 336 282 160 237 307 267 221 132 4 203 218 288 292 266 259 251 250 251 248 237 234 229 223 218 208 202 202 202 206 200 195 192 196 203 204 190 178 180 186 187 189
297 300 252 252 299 203 116 35 45 49 79 272 224 188 280 252 245 270 262 260 262 259 253 245 238 225 225 205 197 194 199 205 200 194 196 197 201 196 182 183 186 185 183 185
348 342 336 337 9 17 59 68 38 17 12 257 227 198 256 269 263 253 263 265 263 259 256 255 247 228 225 220 210 197 195 205 203 197 198 200 199 194 195 192 190 183 183 190
17 329 318 336 198 195 76 120 144 190 232 291 273 239 262 277 291 281 272 273 278 273 267 259 244 233 227 227 223 208 202 204 198 198 197 195 195 192 191 189 185 186 189 189
117 292 314 312 299 135 117 163 172 140 272 283 266 287 304 318 343 347 339 330 311 290 279 275 267 246 236 230 230 213 203 200 191 190 188 185 186 183 179 174 171 175 167 157
159 285 316 319 33 11 126 149 97 112 141 287 300 293 298 326 335 341 347 341 325 327 322 321 325 334 304 268 259 217 193 187 182 177 178 180 179 173 164 159 161 159 154 149
98 136 324 359 72 223 66 80 122 136 158 171 288 287 283 298 313 326 333 336 333 342 343 343 354 356 12 27 16 27 144 152 161 163 164 161 162 159 154 153 156 155 149 149
149 110 305 285 274 227 179 194 168 172 245 192 205 277 315 333 329 339 343 344 344 351 357 360 11 14 23 30 17 18 58 145 154 144 137 143 145 146 147 147 148 144 142 143
134 100 360 347 350 13 27 292 202 180 174 199 207 275 331 3 2 1 359 354 351 360 8 11 12 15 13 17 13 12 28 106 124 132 134 134 139 141 143 141 138 138 137 135
118 127 172 210 250 295 304 314 288 157 198 240 237 277 323 346 350 350 353 355 355 354 2 6 358 353 352 358 2 1 18 76 117 130 135 138 142 142 138 133 130 131 131 131
84 136 253 266 274 266 271 282 281 236 228 230 272 288 310 326 331 336 343 350 355 353 355 353 341 334 336 340 342 343 11 96 122 133 135 139 134 128 127 126 125 124 124 126
61 99 337 319 326 289 284 285 276 266 267 262 284 294 310 319 337 345 347 353 355 347 341 339 333 325 316 306 303 304 255 165 136 141 145 137 132 130 131 131 128 124 122 122
82 100 60 304 319 334 302 285 251 266 279 265 274 295 330 334 338 337 343 353 347 341 339 337 331 320 311 300 280 264 240 176 155 153 146 143 143 142 140 136 132 132 131 127
135 119 130 323 5 283 265 318 267 249 324 342 322 328 333 322 315 327 346 345 340 337 334 331 326 320 315 307 294 263 203 172 166 161 156 154 150 149 145 141 141 138 133 134
154 138 117 108 292 282 290 315 347 289 299 11 331 330 333 330 327 334 353 346 330 325 320 317 314 310 311 313 305 246 189 173 172 176 173 169 160 155 153 152 148 139 135 135
101 105 121 138 222 249 258 283 306 192 276 347 342 336 336 343 341 320 337 334 331 329 326 327 328 329 328 327 327 209 205 189 204 202 187 172 166 163 162 158 148 140 142 146
134 128 162 190 236 265 262 295 355 169 273 329 332 329 331 321 295 302 316 322 326 325 326 332 336 338 331 329 332 304 245 237 234 189 164 162 164 162 156 148 145 147 145 145
177 176 192 181 215 255 250 86 153 237 306 312 312 314 313 306 309 315 319 322 328 330 333 338 340 340 339 345 358 351 318 302 208 156 157 158 155 151 150 149 148 149 152 156
196 192 191 199 217 241 205 197 213 221 277 292 301 307 309 309 312 314 315 320 325 328 332 338 341 342 348 355 7 355 332 343 119 137 150 150 144 145 151 155 156 158 164 170
238 183 188 243 251 241 238 225 235 258 274 297 305 306 309 308 311 314 315 317 322 326 329 334 342 349 349 352 359 351 339 1 105 136 145 144 144 146 152 158 166 174 181 185
210 175 193 241 256 267 242 221 250 306 319 324 323 318 317 313 311 311 310 313 317 321 327 335 339 342 342 350 356 355 0 28 90 122 135 142 148 156 164 174 187 193 200 197
196 181 183 215 213 196 233 233 246 283 303 313 319 321 322 315 308 310 311 312 315 318 325 332 337 341 345 352 351 352 357 17 97 121 138 153 160 166 171 176 193 214 214 218
Height
1477 1480 1481 1480 1479 1479 1479 1479 1480 1478 1475 1476 1475 1473 1469 1468 1468 1468 1468 1469 1470 1472 1474 1476 1478 1480 1483 1487 1491 1494 1497 1501 1506 1510 1514 1518 1522 1525 1529 1532 1536 1539 1541 1544
1482 1482 1479 1477 1477 1477 1478 1480 1479 1476 1474 1474 1474 1471 1467 1466 1466 1466 1466 1467 1467 1469 1472 1474 1475 1478 1481 1483 1487 1491 1495 1498 1502 1505 1510 1514 1519 1522 1526 1529 1532 1535 1538 1541
1483 1482 1478 1477 1478 1478 1479 1481 1480 1478 1475 1473 1475 1472 1467 1463 1462 1463 1463 1463 1464 1466 1469 1471 1473 1476 1478 1481 1484 1488 1491 1495 1498 1502 1506 1511 1515 1519 1522 1525 1528 1532 1535 1537
1483 1481 1479 1479 1479 1479 1480 1478 1477 1477 1478 1479 1477 1478 1467 1464 1463 1461 1460 1461 1462 1464 1466 1468 1471 1474 1476 1479 1482 1485 1488 1492 1495 1498 1502 1505 1509 1512 1516 1520 1524 1528 1531 1533
1483 1481 1481 1480 1479 1479 1479 1477 1477 1477 1479 1481 1478 1479 1471 1465 1464 1460 1458 1458 1458 1460 1463 1465 1467 1470 1473 1476 1479 1481 1485 1488 1491 1494 1498 1502 1505 1509 1512 1516 1519 1523 1526 1529
1483 1481 1481 1480 1478 1478 1478 1479 1479 1481 1482 1485 1480 1479 1474 1468 1462 1458 1456 1455 1456 1457 1460 1461 1464 1467 1470 1473 1476 1479 1482 1484 1487 1491 1495 1498 1501 1504 1508 1511 1515 1518 1521 1524
1485 1482 1481 1480 1480 1479 1480 1486 1490 1490 1491 1487 1479 1478 1472 1461 1458 1456 1454 1453 1454 1455 1456 1457 1460 1463 1466 1469 1472 1476 1478 1481 1483 1487 1490 1494 1497 1500 1503 1507 1511 1514 1517 1519
1491 1490 1483 1481 1481 1482 1483 1486 1492 1492 1490 1486 1479 1477 1468 1460 1456 1454 1453 1452 1452 1452 1453 1454 1457 1459 1463 1466 1469 1472 1474 1477 1480 1483 1487 1490 1493 1495 1498 1503 1506 1509 1512 1515
1492 1490 1483 1481 1481 1481 1483 1486 1487 1491 1489 1486 1480 1475 1466 1457 1455 1454 1452 1451 1450 1451 1451 1452 1454 1457 1460 1462 1465 1468 1470 1473 1476 1479 1483 1486 1489 1492 1495 1498 1502 1505 1507 1510
1490 1491 1486 1483 1482 1482 1483 1484 1488 1490 1489 1483 1478 1476 1472 1463 1459 1456 1454 1452 1451 1450 1451 1452 1453 1455 1458 1460 1462 1464 1466 1469 1472 1475 1479 1482 1485 1488 1491 1494 1497 1500 1502 1505
1489 1492 1489 1486 1485 1485 1486 1486 1487 1490 1489 1489 1484 1478 1467 1466 1462 1459 1456 1453 1451 1450 1451 1451 1453 1455 1456 1458 1460 1462 1464 1466 1469 1472 1475 1478 1481 1484 1487 1490 1493 1496 1498 1501
1489 1493 1493 1489 1485 1484 1484 1485 1486 1488 1490 1490 1488 1481 1465 1465 1462 1459 1457 1454 1452 1451 1452 1452 1453 1454 1455 1456 1458 1459 1461 1464 1466 1469 1472 1475 1478 1480 1483 1486 1489 1492 1494 1497
1489 1494 1498 1493 1491 1487 1486 1485 1485 1486 1489 1489 1487 1480 1465 1464 1462 1460 1458 1455 1453 1452 1452 1453 1453 1454 1455 1455 1457 1458 1460 1462 1464 1466 1469 1472 1474 1477 1480 1482 1485 1488 1490 1493
1487 1493 1498 1497 1492 1489 1487 1485 1484 1487 1489 1486 1482 1477 1469 1467 1465 1462 1460 1457 1456 1454 1453 1453 1453 1454 1455 1455 1456 1457 1458 1460 1462 1463 1466 1468 1471 1473 1476 1479 1481 1484 1487 1489
1489 1493 1493 1491 1488 1488 1486 1485 1483 1484 1484 1485 1479 1476 1473 1470 1468 1465 1462 1459 1457 1456 1455 1454 1454 1454 1454 1455 1455 1456 1457 1458 1459 1461 1463 1465 1468 1470 1472 1475 1478 1480 1483 1486
1491 1494 1493 1491 1488 1487 1485 1483 1482 1481 1481 1480 1478 1477 1472 1470 1468 1465 1462 1460 1458 1457 1456 1455 1454 1454 1454 1454 1454 1454 1454 1455 1457 1458 1460 1462 1464 1466 1469 1472 1474 1477 1479 1482
1494 1495 1496 1495 1491 1486 1486 1483 1482 1481 1480 1480 1479 1478 1473 1470 1468 1466 1463 1461 1459 1458 1456 1455 1454 1453 1452 1452 1452 1452 1453 1454 1455 1456 1457 1459 1461 1464 1466 1468 1471 1474 1476 1478
1494 1495 1497 1496 1494 1492 1486 1481 1481 1480 1480 1479 1478 1476 1474 1471 1468 1466 1464 1462 1459 1457 1456 1454 1453 1452 1451 1451 1450 1450 1451 1451 1452 1453 1455 1457 1459 1461 1463 1465 1468 1471 1473 1475
1492 1494 1497 1498 1498 1492 1484 1481 1481 1481 1479 1480 1478 1476 1473 1470 1466 1464 1463 1462 1460 1457 1455 1454 1452 1451 1450 1449 1448 1448 1448 1448 1449 1450 1452 1454 1456 1458 1460 1462 1465 1467 1470 1472
1493 1495 1498 1499 1496 1492 1484 1481 1480 1482 1480 1479 1477 1476 1473 1470 1469 1466 1463 1461 1459 1456 1454 1452 1450 1449 1447 1447 1446 1445 1445 1446 1447 1448 1450 1452 1454 1456 1458 1460 1462 1464 1466 1469
1494 1496 1498 1499 1497 1488 1482 1480 1479 1484 1481 1478 1477 1475 1474 1472 1470 1467 1463 1460 1458 1455 1453 1451 1449 1447 1446 1445 1444 1443 1443 1443 1444 1446 1447 1449 1451 1453 1455 1457 1459 1461 1463 1465
1492 1494 1494 1495 1496 1490 1480 1479 1481 1481 1478 1477 1475 1474 1472 1469 1467 1464 1461 1458 1456 1453 1451 1449 1447 1446 1444 1443 1442 1441 1441 1442 1442 1443 1444 1446 1448 1449 1452 1454 1456 1458 1460 1462
1488 1487 1487 1487 1485 1479 1477 1477 1478 1477 1476 1475 1473 1471 1469 1467 1464 1461 1459 1456 1454 1452 1450 1448 1446 1444 1443 1442 1441 1440 1440 1440 1440 1441 1442 1443 1445 1446 1448 1450 1453 1455 1456 1458
1483 1481 1483 1482 1477 1476 1475 1475 1475 1475 1474 1472 1471 1469 1466 1464 1461 1459 1457 1455 1453 1450 1448 1446 1445 1443 1442 1441 1440 1439 1438 1438 1438 1439 1440 1441 1442 1443 1445 1447 1449 1451 1453 1454
1477 1478 1479 1478 1474 1473 1473 1473 1473 1472 1471 1470 1468 1466 1464 1462 1459 1457 1455 1453 1450 1449 1447 1445 1444 1442 1440 1439 1438 1438 1437 1437 1437 1437 1438 1438 1439 1441 1443 1444 1446 1448 1449 1451
1471 1472 1474 1472 1469 1470 1469 1470 1470 1469 1468 1467 1465 1463 1461 1459 1457 1454 1452 1450 1448 1446 1445 1443 1442 1440 1439 1438 1437 1436 1436 1435 1435 1435 1436 1436 1437 1439 1440 1441 1443 1443 1445 1446